Wind_Speed
44 48 47 48 48 47 47 47 46 46 45 43 42 42 41 42 41 39 39 41 44 46 45 42 43 45 43 41 42 41 37 35 34 32 30 28 28 28 28 28 28 28 28 27 26 24 23 22 22 23 24 25 26 26 25 22 21 21 22 23 24 24 23 22 22 21 21 22 22 23 23 23 23 23 22 22 22 22 21 20 19 19 20 20 20
40 44 46 49 50 48 46 46 45 44 43 42 42 42 43 43 41 40 39 38 37 38 40 41 43 47 46 43 44 44 42 40 39 37 33 31 31 33 33 33 33 32 31 30 29 27 25 23 23 23 23 25 26 27 28 26 22 21 22 23 24 24 24 23 22 22 21 22 22 23 24 24 23 23 22 22 22 22 22 21 20 19 20 20 20
41 42 43 47 48 46 45 45 44 44 43 43 43 43 44 43 41 40 39 38 37 36 39 41 41 44 47 46 46 47 46 44 43 40 35 34 36 37 37 38 37 35 34 33 31 30 28 26 26 25 24 25 26 27 29 29 26 23 22 23 24 25 25 24 23 22 22 22 23 23 24 24 24 23 23 22 22 23 23 22 21 20 20 20 20
44 44 43 44 47 47 46 45 45 45 45 44 45 45 45 43 41 40 40 40 40 40 42 43 41 41 45 46 47 50 49 47 45 43 39 38 40 40 41 41 40 38 36 35 34 32 30 29 28 28 27 26 27 27 28 30 29 26 24 23 24 25 25 25 24 23 23 22 23 24 24 24 24 23 23 22 22 23 23 23 22 21 20 20 21
48 47 45 44 46 48 46 46 45 45 45 45 46 46 45 44 42 41 40 39 39 41 42 43 42 42 45 46 48 51 51 49 49 48 45 43 42 42 42 43 43 41 38 37 37 35 32 32 31 29 28 28 28 28 28 29 31 29 26 24 24 25 25 26 25 24 24 23 23 24 24 25 25 23 23 23 23 23 23 23 22 21 21 20 21
53 51 48 46 47 47 46 45 45 44 44 44 45 44 44 43 41 41 40 38 38 40 40 40 40 41 43 45 48 52 53 52 52 52 50 47 45 43 44 45 45 43 41 39 39 36 34 34 33 31 30 29 29 29 29 29 31 31 29 25 24 25 26 26 26 25 25 24 24 24 25 25 25 24 23 22 23 23 23 23 23 22 21 21 22
58 56 52 50 51 50 47 46 45 44 44 43 43 43 42 41 40 41 40 39 38 39 39 38 37 38 41 45 48 50 52 53 55 54 52 50 47 45 46 46 47 47 45 43 41 38 36 36 35 34 32 30 30 30 30 29 30 32 31 27 25 25 26 27 27 26 26 25 25 25 25 26 25 24 23 22 22 23 23 23 23 23 23 22 23
63 61 58 55 55 53 50 48 47 46 45 45 44 44 43 41 41 42 41 40 39 38 37 37 36 36 38 41 43 44 46 49 51 50 50 51 50 50 49 48 50 52 49 43 40 39 38 37 37 36 35 33 33 32 31 30 31 32 32 29 27 26 27 27 28 27 27 26 26 26 26 26 26 25 23 22 22 23 24 24 23 24 24 24 24
66 65 63 60 58 56 53 51 51 50 49 48 47 46 45 43 43 43 41 40 39 37 36 36 36 35 35 36 38 38 38 40 41 41 43 46 49 52 53 51 52 54 48 41 40 39 39 39 38 37 37 36 35 34 32 31 32 32 32 31 28 27 27 28 28 28 28 27 26 26 27 27 27 25 24 23 22 23 24 24 24 24 25 25 26
68 68 67 65 63 60 57 56 56 54 53 52 51 49 48 47 46 44 42 41 41 40 38 38 38 37 37 37 38 38 38 38 38 38 39 41 44 49 52 51 51 50 46 44 44 41 40 41 39 38 39 38 37 35 32 31 32 32 33 32 30 29 28 29 29 29 29 28 27 27 27 28 28 26 25 24 22 22 24 25 25 25 26 26 27
70 70 70 69 69 66 63 61 60 59 58 57 55 53 52 52 50 48 46 45 46 45 43 42 43 42 41 41 41 42 41 40 39 39 38 39 41 43 46 48 48 47 46 46 45 43 42 43 41 40 40 40 39 36 32 32 33 32 32 33 33 31 30 29 30 30 29 28 28 28 28 29 29 28 27 25 23 23 24 25 25 26 26 27 27
73 73 72 71 72 72 69 66 64 63 62 60 57 55 54 55 55 54 53 51 50 49 47 45 44 44 46 46 45 45 42 39 39 39 38 40 42 42 41 43 42 41 41 41 41 41 43 45 44 42 41 41 40 35 31 33 34 32 33 36 36 34 32 30 30 31 30 28 28 28 29 30 30 30 28 27 25 24 24 25 25 26 27 28 28
77 76 75 74 74 75 74 71 69 67 65 63 60 57 56 56 57 57 57 55 52 52 50 47 44 43 45 46 46 47 45 41 40 40 40 42 43 42 41 41 39 36 35 36 37 39 42 46 46 42 41 41 40 35 32 34 34 35 38 39 38 37 34 32 31 31 30 29 29 29 29 30 31 31 30 29 28 27 25 25 25 26 27 29 29
81 80 78 76 76 77 77 76 73 71 68 66 64 61 59 58 58 58 58 56 55 53 51 48 45 43 43 45 46 47 47 45 42 42 42 43 43 41 39 40 39 37 36 35 36 37 39 43 44 42 41 42 40 35 34 35 36 37 40 40 39 39 37 34 33 31 30 29 29 30 30 30 31 33 32 31 30 29 27 26 26 27 28 29 29
82 82 81 80 78 78 79 79 77 75 72 69 67 65 63 62 60 60 59 59 57 55 52 49 47 46 44 45 46 47 47 46 44 43 42 42 41 39 38 38 39 39 38 36 35 37 38 40 42 43 43 42 38 35 35 36 37 37 38 38 38 38 38 35 32 31 30 29 30 31 31 31 32 34 34 34 32 31 30 28 27 28 29 29 30
85 84 83 83 82 80 80 80 79 78 76 73 71 68 67 65 64 63 62 62 61 59 56 54 52 50 47 46 46 47 47 46 45 43 42 42 41 40 40 40 39 39 38 37 36 35 36 37 40 42 43 40 36 35 37 38 37 37 37 37 37 36 35 33 31 31 30 30 32 33 33 32 33 34 35 35 35 33 32 31 29 29 30 30 30
86 86 85 84 83 83 81 81 80 79 78 77 74 72 70 68 67 65 65 65 64 62 60 58 56 53 50 48 47 47 47 45 43 41 41 41 41 41 42 42 42 41 40 40 39 37 35 36 39 41 41 39 38 39 40 37 36 37 38 36 36 35 32 30 30 31 31 32 33 34 34 34 35 35 36 36 37 36 35 33 32 31 31 30 31
87 87 87 86 85 84 83 83 82 80 79 78 76 74 72 70 68 67 66 66 66 63 60 59 57 56 53 51 49 48 47 46 43 42 42 42 43 44 46 46 45 44 44 43 43 42 39 39 41 42 42 40 41 43 43 38 36 38 39 37 34 32 30 29 32 33 33 33 34 35 36 36 37 37 36 37 38 38 37 35 34 33 32 32 33
86 87 88 88 88 87 85 84 84 83 81 79 78 76 73 70 68 67 67 67 67 64 62 60 59 58 57 56 54 52 51 50 48 47 46 46 47 48 50 50 48 47 47 47 47 46 43 42 43 43 42 42 43 43 43 42 40 40 40 38 34 30 29 31 34 35 35 35 36 36 37 38 38 38 38 37 38 38 38 37 37 35 33 33 34
84 87 88 89 89 90 89 87 86 85 83 81 79 77 74 72 69 67 68 68 67 65 63 62 62 62 61 59 58 57 56 54 52 51 49 49 51 53 53 52 50 50 51 52 51 49 48 46 44 43 43 44 44 43 44 45 43 41 42 41 36 32 32 34 36 37 37 37 37 37 38 40 40 39 39 38 38 39 39 39 38 37 34 34 35
84 87 89 90 90 90 91 89 87 86 84 83 82 80 77 74 72 69 68 69 68 66 63 62 64 65 65 64 62 61 60 58 55 53 51 50 52 55 57 55 53 54 55 55 54 53 51 48 46 45 45 46 45 45 45 45 43 42 43 43 41 39 37 37 38 39 40 39 38 39 41 42 42 40 39 39 39 40 40 39 38 37 35 34 36
86 87 88 90 91 90 90 90 88 86 85 84 83 83 80 78 75 73 71 70 69 66 64 62 64 67 68 67 66 64 63 61 57 54 53 51 52 55 59 59 57 56 57 57 56 55 52 50 48 46 47 48 47 46 46 46 45 43 43 44 45 44 41 41 41 41 41 41 41 41 41 41 41 40 39 39 40 40 40 39 37 37 36 36 37
88 88 87 88 90 90 89 89 86 84 84 83 83 82 81 79 78 76 74 73 71 69 66 64 64 68 70 69 68 67 66 63 60 57 56 57 56 56 59 60 59 59 59 58 58 56 53 51 49 48 48 49 48 46 46 46 46 44 43 44 45 44 43 44 44 44 43 43 41 39 38 38 40 41 40 40 40 40 39 39 38 37 36 37 38
86 88 87 86 87 88 88 87 85 83 81 80 80 79 78 78 77 77 76 74 72 71 69 66 66 69 69 69 69 69 67 65 62 59 59 60 58 57 58 59 60 60 60 60 58 56 54 53 51 50 50 50 48 47 45 45 46 45 44 44 44 45 44 44 45 44 43 42 41 40 40 41 41 42 42 41 40 39 39 40 38 36 36 37 38
82 83 84 84 83 84 86 86 84 81 79 77 76 75 74 74 74 74 74 72 71 70 68 66 67 69 69 68 68 68 68 66 61 59 60 60 59 58 58 59 60 60 60 61 60 58 58 57 54 53 52 50 49 48 47 46 48 48 46 46 46 45 44 44 45 45 45 45 46 45 44 44 44 44 44 41 40 40 40 41 39 36 35 36 36
76 75 77 80 79 78 81 84 82 79 77 75 73 71 70 70 69 69 69 68 67 67 68 68 69 70 70 70 69 68 68 65 60 59 61 62 62 61 61 61 62 62 62 63 62 61 61 61 59 57 55 52 50 50 49 49 50 49 47 47 47 46 45 45 47 48 48 49 49 48 47 48 47 46 44 43 42 41 41 42 42 40 38 36 36
68 67 68 72 75 74 77 79 79 77 76 73 70 69 68 68 68 67 66 65 65 67 69 71 72 72 72 72 70 68 67 64 61 61 62 62 63 63 63 64 64 64 65 65 64 63 65 65 64 61 58 54 52 51 50 51 52 51 48 46 46 46 47 48 49 50 49 49 50 51 50 51 49 46 44 45 45 44 43 42 44 45 44 41 39
61 62 60 62 68 71 71 71 72 74 74 72 70 68 67 67 66 65 64 65 66 67 67 66 66 68 69 69 68 67 67 65 62 62 62 61 62 62 63 64 64 65 66 67 66 67 68 68 66 63 60 58 57 55 54 53 53 53 51 49 48 48 50 51 52 52 50 50 51 51 51 50 48 45 44 46 46 46 45 43 44 47 47 45 42
52 53 52 54 61 65 64 63 66 69 72 71 69 67 66 64 62 61 61 62 64 65 63 60 61 63 64 65 66 66 66 65 63 62 62 62 63 63 63 64 64 65 68 69 70 70 70 68 66 63 62 62 61 59 57 55 55 55 54 53 53 53 53 53 52 51 51 51 51 50 49 48 47 45 45 45 46 47 47 44 45 47 47 44 43
43 44 44 47 54 59 59 59 61 64 67 69 69 67 65 62 60 59 60 60 60 61 60 59 59 60 60 62 63 64 64 64 64 64 65 65 65 64 63 63 64 66 69 71 72 71 68 66 65 64 63 63 62 59 57 56 56 56 56 55 55 54 54 52 51 51 52 51 50 48 47 47 46 45 46 46 46 47 47 45 45 47 46 43 43
36 37 39 42 49 54 56 56 57 59 62 65 66 66 64 62 60 59 59 58 59 58 57 57 58 59 59 59 59 60 62 64 65 66 67 67 67 66 66 66 66 67 70 72 71 69 67 65 64 64 63 62 61 58 56 55 55 55 55 54 54 53 52 51 50 51 52 51 49 48 47 47 47 47 47 47 47 48 48 46 46 47 46 46 46
33 36 40 45 49 50 51 52 53 54 56 58 60 62 62 61 60 58 57 56 57 57 57 57 57 57 57 56 56 58 61 64 66 66 66 67 68 68 69 71 70 69 70 71 69 66 65 65 64 62 62 62 59 55 51 51 52 53 53 53 52 52 51 50 50 50 51 50 49 48 48 48 48 47 48 48 48 49 49 47 47 48 48 49 49
35 38 41 43 43 43 43 44 45 46 48 50 52 55 57 58 58 57 55 55 56 56 56 57 57 57 54 52 52 55 57 60 64 65 63 66 71 73 72 73 73 72 70 69 65 64 65 66 64 62 61 60 56 50 48 49 51 52 53 54 53 51 51 51 50 50 49 49 48 48 49 49 49 48 49 49 48 50 50 49 48 49 49 50 52
32 33 32 31 32 33 35 36 37 38 41 44 47 50 52 54 55 54 53 54 57 58 56 54 54 54 53 50 49 51 54 57 61 63 63 64 69 73 73 73 72 70 68 65 63 63 65 65 64 62 61 58 54 49 48 49 51 52 53 54 53 52 52 52 52 52 51 49 49 48 48 49 49 49 50 49 49 50 51 50 49 50 50 51 52
28 29 29 30 31 32 33 34 36 36 37 40 43 45 48 50 52 54 53 52 53 57 58 56 52 49 49 50 50 52 56 59 62 65 66 64 65 68 71 73 71 69 66 64 62 64 66 65 64 63 61 57 54 51 48 49 50 51 53 53 53 54 54 53 52 53 52 51 50 49 48 49 50 50 50 50 50 51 52 52 51 51 51 52 53
27 28 29 31 32 33 33 35 36 37 39 41 42 43 44 45 47 50 50 48 48 52 56 58 56 52 50 52 53 55 58 61 64 67 68 68 66 65 68 71 71 70 68 67 65 66 67 67 65 64 61 57 54 51 50 51 52 52 53 53 53 54 55 53 53 53 52 51 51 51 51 51 50 50 50 51 51 51 52 52 51 51 52 53 54
27 28 29 30 30 32 32 33 34 35 37 39 41 43 45 46 46 47 47 47 46 46 47 52 55 55 54 55 57 57 59 62 65 68 69 70 69 68 68 70 70 71 71 69 67 68 70 68 66 65 62 58 55 54 54 54 53 53 53 53 53 54 54 54 53 52 51 51 51 51 52 53 52 51 51 52 51 50 50 51 51 51 52 53 53
28 29 30 31 31 32 32 32 33 33 34 34 35 37 39 42 44 46 46 45 45 45 45 48 52 54 55 57 59 59 61 63 66 69 70 71 71 70 70 71 71 71 72 70 69 71 71 69 67 66 62 58 57 58 57 55 53 53 53 52 52 53 54 55 53 51 49 50 50 51 53 54 52 50 50 51 50 49 50 51 51 51 51 52 53
28 30 31 32 32 33 34 34 34 35 35 35 35 34 35 36 38 40 42 43 44 45 46 48 50 52 54 57 60 61 61 64 67 69 71 72 71 70 70 71 72 73 73 71 71 71 70 68 67 65 62 60 61 60 57 54 53 53 53 52 52 53 54 54 53 50 49 49 49 50 53 53 49 48 50 51 49 49 51 52 52 53 52 52 52
27 29 31 32 33 34 35 35 36 37 37 37 37 37 37 37 38 39 41 43 44 45 47 49 52 55 57 59 61 61 61 63 66 69 70 71 71 69 68 69 70 70 70 70 69 69 68 66 65 65 63 62 61 59 56 54 53 53 53 52 52 53 54 55 54 51 49 48 47 47 49 48 47 48 51 51 50 51 52 52 53 53 53 52 52
28 29 30 31 32 33 34 35 36 37 38 39 39 39 40 40 40 41 42 43 44 46 49 52 56 58 59 60 61 61 61 62 64 66 67 68 68 67 67 67 67 67 67 66 66 66 65 63 62 61 61 60 59 56 55 53 52 52 52 52 52 53 54 55 54 51 49 49 49 48 48 47 49 51 52 52 52 54 54 53 53 53 53 53 54
28 30 32 33 33 34 35 36 37 38 39 40 41 41 42 43 43 44 45 46 48 50 52 54 56 57 58 57 58 58 59 60 60 61 62 64 65 65 65 65 65 64 64 64 64 64 61 59 57 56 56 56 56 54 53 52 52 52 53 53 53 54 55 55 54 52 50 50 51 51 50 49 49 51 52 53 54 55 54 53 53 54 55 55 56
23 28 32 34 36 38 38 39 40 40 41 42 43 44 45 45 46 47 48 48 49 50 51 52 53 54 54 54 54 54 55 55 56 57 59 61 62 63 64 64 63 63 63 62 61 59 57 56 55 55 55 55 54 53 53 53 52 52 53 54 55 56 56 55 53 52 51 51 52 53 52 51 50 50 52 53 54 54 54 54 54 55 56 57 58
16 22 28 32 35 37 40 41 42 43 44 44 45 46 46 47 48 49 49 49 49 48 48 48 48 49 49 49 50 50 52 53 53 54 56 58 59 60 60 60 59 59 59 58 57 56 55 55 55 54 54 54 54 54 54 53 53 53 54 55 56 57 57 56 54 53 53 53 54 54 54 53 52 52 53 54 54 54 54 55 55 56 57 57 58
6 10 17 23 28 32 35 37 39 40 42 43 44 46 46 46 46 46 45 44 44 43 43 43 43 44 45 46 46 47 49 50 51 52 52 53 53 53 53 53 53 53 53 52 52 53 53 53 53 53 53 53 54 54 54 54 54 54 55 56 57 57 56 55 54 54 54 54 55 55 55 55 55 54 54 55 55 55 54 55 56 57 57 58 58
6 7 7 10 15 21 26 29 32 35 37 38 39 40 41 41 41 41 40 38 36 34 35 36 37 39 41 43 45 47 48 48 48 48 46 45 45 46 46 46 47 47 48 49 49 50 51 51 52 52 52 52 52 53 53 53 54 55 56 57 57 57 56 55 55 56 56 56 56 56 56 56 57 56 56 55 56 56 57 57 58 58 57 57 57
3 1 3 7 9 11 13 16 19 22 26 29 31 32 33 33 33 33 33 33 32 31 31 32 33 34 36 38 39 41 42 42 42 41 40 40 40 41 42 43 44 45 46 47 48 49 50 51 52 52 52 51 51 51 52 52 52 53 54 55 55 56 56 56 56 57 58 57 57 57 57 57 58 58 57 56 57 57 57 57 56 56 56 56 56
9 8 6 3 2 6 8 9 8 9 10 13 16 18 21 25 28 28 28 29 30 30 31 32 32 32 32 33 34 35 35 35 35 35 34 35 36 37 38 40 41 42 42 44 45 45 46 47 48 49 49 49 48 49 51 52 52 53 54 55 55 55 56 56 57 58 59 59 59 60 60 60 60 59 58 58 57 56 56 55 55 55 55 54 54
13 12 11 10 9 7 6 6 6 6 7 8 8 9 11 15 20 23 26 29 30 29 30 32 34 35 33 31 30 30 31 31 32 33 33 34 34 35 36 37 38 39 40 41 42 43 44 44 45 46 48 49 49 50 52 53 53 53 54 54 55 56 57 57 58 59 60 60 61 61 61 61 60 59 58 58 57 56 55 55 55 54 54 54 54
16 14 13 13 13 13 12 12 11 10 9 10 10 9 10 11 13 15 17 19 21 21 20 22 29 36 38 35 32 32 33 34 35 34 34 35 36 37 37 38 39 40 41 42 43 44 45 45 45 46 48 49 50 50 51 52 52 53 54 55 56 57 58 59 60 60 61 62 62 61 60 59 58 56 55 55 55 54 55 55 55 56 56 56 55
19 17 16 15 14 14 15 15 15 15 14 13 12 12 13 13 13 13 13 13 14 15 13 13 17 25 31 33 33 34 37 39 39 39 38 38 39 40 41 42 42 42 43 44 45 45 46 47 47 48 49 50 51 51 52 53 54 55 56 57 58 59 60 60 61 60 59 58 58 58 57 58 58 57 56 56 55 55 55 55 55 56 56 56 55
Wind_Direction
216 214 215 217 217 214 210 209 212 216 217 218 217 218 220 221 222 222 222 223 226 231 237 241 242 242 240 235 226 218 216 220 222 223 226 232 239 243 245 246 248 251 256 260 264 268 272 279 285 290 295 299 302 307 313 320 327 332 334 335 334 332 329 326 325 324 324 324 323 322 321 321 321 321 321 320 319 319 318 318 317 317 319 321 323
225 222 221 221 218 214 210 209 211 214 216 218 219 221 222 222 222 221 220 219 221 228 236 240 241 241 241 238 230 221 217 218 221 221 223 228 234 239 242 244 245 247 250 254 258 262 266 271 277 283 289 295 299 303 308 313 319 326 330 333 333 331 329 325 324 324 322 321 322 321 320 320 321 321 321 321 319 318 317 316 315 316 318 320 322
231 229 227 223 218 214 211 211 213 216 218 220 221 223 223 224 223 222 220 219 219 224 231 233 232 233 236 236 230 223 218 217 221 222 222 225 231 236 241 245 246 247 249 252 256 259 263 269 273 277 283 289 294 298 303 307 313 318 323 328 330 330 329 326 324 323 322 320 320 320 320 320 320 320 321 321 319 317 315 314 314 315 317 319 319
234 233 231 227 223 220 217 215 217 219 221 223 223 223 224 224 222 220 220 220 220 223 228 230 227 225 228 231 228 223 219 218 221 224 223 224 230 236 241 245 247 248 249 252 255 257 262 267 270 274 279 284 289 293 298 302 306 311 316 322 327 329 328 326 324 322 322 321 319 319 320 319 319 319 321 321 319 316 313 313 314 315 316 316 315
234 234 233 230 227 224 222 220 220 222 225 225 224 223 225 225 222 219 219 221 223 226 230 232 229 224 224 227 226 224 223 220 222 225 226 227 231 235 241 245 248 250 250 251 254 257 260 266 269 271 273 279 284 288 292 297 301 305 310 316 323 327 328 326 325 322 322 321 319 318 318 319 319 319 321 321 318 314 312 312 314 315 315 314 313
231 232 232 230 228 225 222 222 222 223 224 225 225 225 225 225 224 222 221 222 223 226 229 232 230 225 224 226 225 225 226 225 225 227 230 231 232 234 240 245 248 249 249 250 253 256 260 266 270 270 269 272 278 282 287 292 297 300 305 311 318 324 326 326 325 323 321 321 319 317 317 317 318 319 320 320 317 313 311 312 314 315 314 312 311
231 230 230 230 228 226 223 221 222 222 222 223 225 227 228 228 227 226 225 223 221 222 226 230 230 226 224 226 227 228 228 228 228 230 233 235 235 236 239 244 248 249 249 250 253 256 258 265 270 272 270 270 273 279 284 289 293 296 300 305 312 319 323 326 325 323 321 320 318 317 316 315 316 318 319 318 316 313 311 312 314 314 313 312 311
232 229 229 229 228 225 222 219 218 218 220 222 225 227 229 231 230 229 227 225 221 221 224 227 229 230 228 227 230 233 234 234 233 234 237 239 242 244 243 242 246 250 251 254 259 259 257 262 269 272 271 270 273 277 281 286 289 292 295 300 307 313 319 323 324 324 321 319 318 317 315 314 314 316 317 316 315 314 311 311 313 313 313 312 311
233 231 229 228 226 222 218 218 218 217 219 221 224 228 230 231 231 229 228 227 225 224 228 230 231 232 233 231 229 231 234 237 240 241 243 244 246 247 245 243 247 253 256 258 263 262 258 259 266 269 269 271 273 276 279 283 286 288 291 296 303 308 313 318 321 322 321 319 318 317 315 314 313 313 314 313 314 313 311 311 312 313 313 312 312
233 233 230 229 227 223 219 218 219 218 219 221 223 227 229 230 229 227 228 231 232 230 232 236 236 235 237 237 234 233 232 235 239 242 245 249 250 249 248 249 253 258 259 259 262 263 259 258 261 265 267 270 273 275 277 280 282 286 289 293 298 303 307 312 316 319 319 318 317 315 315 313 312 311 310 310 311 311 309 310 311 311 312 312 312
232 233 231 230 229 227 223 221 221 221 222 223 224 225 227 228 227 227 228 232 236 235 235 238 240 239 240 242 242 241 239 237 239 241 244 249 253 252 250 250 252 255 256 257 261 264 262 258 257 260 263 267 271 273 275 275 276 279 286 291 294 298 302 307 311 314 316 317 316 314 313 313 312 310 307 306 308 308 307 308 309 310 310 310 312
232 231 231 230 230 229 227 224 223 224 224 225 225 225 226 227 226 227 229 231 234 236 236 237 240 242 243 243 244 245 243 242 243 245 246 249 252 253 252 251 250 251 253 257 261 264 262 256 253 256 260 264 269 271 273 274 272 276 284 289 290 293 298 302 306 310 313 314 315 313 312 313 312 310 307 304 304 304 304 305 307 308 308 308 311
231 231 230 229 229 229 228 227 226 225 226 227 227 226 227 228 227 227 229 231 233 236 237 238 240 242 244 243 243 244 243 243 243 244 244 247 250 253 254 254 252 251 254 258 263 265 260 253 251 253 257 262 268 270 271 273 274 277 283 286 287 290 295 299 302 305 309 313 314 313 313 312 312 310 307 304 301 301 303 304 305 306 305 306 309
230 230 229 228 228 229 229 228 227 226 226 228 229 228 227 228 228 229 230 232 234 236 238 240 241 244 245 244 242 242 242 242 242 242 242 244 248 252 253 253 252 251 254 260 266 267 260 252 249 251 255 260 263 266 268 271 273 276 279 283 285 288 292 296 298 301 305 311 314 314 314 313 311 309 307 304 301 299 300 302 303 303 303 304 307
229 229 229 228 227 227 228 228 227 227 227 228 230 230 229 229 229 231 232 233 235 237 239 241 243 246 247 245 243 242 242 242 243 244 245 248 250 252 253 253 253 254 257 260 264 266 263 255 249 250 255 258 259 261 265 269 272 275 278 280 281 283 288 291 294 297 302 308 314 316 315 312 309 308 307 305 302 300 298 300 302 301 301 303 306
229 228 228 228 227 226 227 228 228 227 228 228 229 230 230 230 230 231 234 235 237 239 241 242 244 246 247 247 245 244 243 243 243 245 248 250 252 254 255 256 256 258 260 261 261 262 264 261 256 254 256 256 255 257 262 269 274 277 278 279 277 278 283 288 291 295 300 306 312 315 314 312 308 307 307 306 304 301 298 298 300 300 300 303 303
228 227 227 228 228 227 226 226 227 227 228 229 229 230 231 231 231 231 233 236 238 239 241 243 244 245 246 245 245 244 242 242 243 245 247 250 254 257 259 259 259 259 261 262 261 261 261 262 261 259 258 258 257 257 261 269 278 282 280 278 277 277 282 287 290 293 298 305 310 313 313 312 309 306 306 306 305 303 300 297 297 297 300 301 301
228 227 227 226 227 227 226 225 225 226 227 228 229 229 229 230 231 231 233 235 237 238 240 242 243 243 243 243 242 242 242 243 244 245 246 250 255 259 260 261 261 261 261 262 262 262 262 261 261 260 261 261 261 262 261 264 275 284 282 277 276 278 281 284 287 290 296 303 307 309 311 312 309 306 305 305 305 304 302 298 295 295 298 299 299
228 227 227 226 226 226 226 225 225 224 225 227 228 228 228 229 230 231 232 234 236 237 238 240 240 241 241 241 241 242 243 246 249 249 248 251 256 258 259 260 261 262 263 262 262 261 261 261 261 262 264 264 265 267 265 262 271 283 283 276 275 278 279 280 284 288 293 299 304 306 308 309 308 305 304 304 304 303 302 298 295 294 295 296 298
228 226 226 227 226 226 225 224 224 224 224 225 226 227 228 229 230 231 232 233 235 236 237 238 239 239 239 239 240 242 244 247 250 252 253 254 256 257 258 260 260 261 262 262 261 259 259 260 262 265 267 267 267 269 268 267 273 282 282 277 273 272 273 277 282 285 289 295 300 302 304 305 305 304 303 301 302 302 300 299 296 294 293 293 294
228 226 225 225 226 227 226 224 223 223 223 223 225 226 227 228 230 231 233 234 234 236 237 238 238 239 239 239 240 242 245 247 250 253 254 255 256 257 259 260 260 260 261 260 258 257 258 260 262 265 266 267 267 268 268 269 272 277 281 279 274 270 271 275 279 283 287 291 295 297 299 300 301 301 300 299 300 299 298 298 296 294 292 290 290
228 226 225 224 225 226 227 225 223 223 223 223 224 225 226 227 228 230 232 234 235 236 238 239 238 238 239 240 240 242 245 247 249 252 254 255 255 255 257 259 259 259 260 258 256 255 257 259 261 263 264 265 267 267 268 269 270 273 279 281 276 275 276 277 278 281 284 286 290 293 296 298 298 298 298 298 298 298 297 297 296 293 291 288 287
227 226 224 223 223 225 226 226 225 224 223 223 224 225 226 226 227 228 230 232 234 236 237 238 238 238 239 240 240 242 244 246 248 249 253 255 255 254 255 257 258 258 258 256 254 254 256 258 259 261 264 265 266 267 269 269 269 271 278 281 277 275 276 278 280 283 284 286 290 293 295 297 297 297 296 296 296 296 296 296 295 293 291 288 287
225 225 224 223 223 223 224 225 226 225 226 225 224 225 226 226 227 228 229 230 233 235 236 236 236 237 238 239 240 241 243 245 246 248 250 253 254 255 256 256 256 257 257 254 253 254 256 257 258 260 263 265 268 270 271 271 271 272 275 277 276 275 275 278 283 286 286 287 289 292 294 294 295 296 295 294 294 294 293 293 293 294 293 290 289
223 224 223 222 222 222 223 224 225 225 227 227 227 226 226 226 227 228 229 230 231 232 233 234 235 236 238 240 241 242 242 243 245 247 248 250 251 254 256 256 256 256 255 253 254 256 257 257 258 260 262 265 269 272 273 275 276 275 272 270 272 275 276 278 282 284 285 286 289 291 292 292 292 293 292 292 292 292 290 289 289 292 295 294 292
220 222 223 222 220 221 223 224 223 224 226 228 228 228 228 227 227 227 227 228 229 230 231 232 233 234 236 238 241 243 242 242 243 245 247 249 250 251 253 254 255 254 253 253 256 258 258 258 259 260 261 264 267 271 274 276 277 278 274 270 270 273 276 278 281 283 285 287 289 290 291 290 290 290 289 288 288 288 288 287 287 288 291 295 296
214 218 221 221 219 220 222 223 223 223 225 226 227 228 228 228 227 227 227 227 229 229 231 232 233 233 234 237 240 243 243 242 242 244 246 248 248 249 250 251 253 252 251 252 256 259 259 259 259 260 262 263 266 270 274 275 277 279 278 275 272 273 276 279 281 283 285 287 288 288 289 289 289 288 287 286 285 285 287 288 287 285 286 290 295
207 213 217 218 217 218 221 223 223 223 224 225 227 228 229 229 229 229 229 230 230 230 232 236 239 239 238 239 240 243 244 242 241 243 245 247 247 247 248 250 252 251 249 251 256 258 258 259 260 261 263 264 267 271 273 274 275 276 277 277 276 275 277 280 282 283 284 285 285 286 286 287 287 286 284 283 283 284 286 287 287 286 284 285 290
202 208 213 215 214 214 217 220 221 222 223 224 226 227 229 230 231 231 232 234 234 233 234 237 242 244 243 242 242 242 242 241 240 242 244 245 245 246 247 250 251 251 249 251 254 256 257 259 261 263 264 266 269 271 273 273 273 274 274 275 276 277 278 280 282 283 283 282 283 285 285 284 283 283 283 282 282 284 285 286 287 287 285 284 287
199 204 210 214 213 211 212 215 218 221 222 223 224 226 228 229 230 230 232 234 236 237 236 235 239 243 244 243 243 244 242 241 242 243 243 243 243 244 247 250 251 249 248 250 253 255 258 261 263 265 267 268 269 271 271 271 271 271 272 273 275 277 279 280 281 282 281 281 282 283 283 282 281 281 282 282 282 284 285 286 287 286 285 284 285
200 205 208 209 205 203 205 210 215 218 220 221 223 224 226 227 228 229 231 233 235 237 237 235 237 241 242 241 242 242 241 241 244 244 242 241 242 243 245 248 249 249 248 250 253 256 259 262 264 267 268 269 270 271 270 268 268 269 271 273 275 276 278 279 280 280 280 279 280 281 282 281 281 281 281 282 283 284 285 286 286 286 285 283 284
200 200 199 196 195 195 199 205 211 216 219 219 221 223 223 225 227 228 230 231 233 236 238 235 235 239 241 239 238 238 238 240 243 244 243 242 242 244 245 246 247 247 249 251 254 258 261 264 266 268 269 271 272 270 266 263 265 268 270 272 273 275 277 279 279 279 279 279 279 280 280 279 278 279 280 282 283 284 284 284 285 286 285 283 283
186 186 187 187 188 190 196 203 209 214 217 218 220 221 222 223 225 228 230 231 231 233 237 237 237 240 242 240 237 236 237 239 241 243 243 242 242 244 246 245 245 247 250 252 254 258 262 265 267 268 270 272 270 265 262 262 264 267 269 271 273 274 276 277 278 279 280 280 279 279 278 277 275 277 279 281 282 283 283 283 284 286 285 282 281
168 171 173 178 184 190 197 203 208 212 214 217 219 221 221 222 223 225 229 231 230 230 233 236 237 238 239 239 240 240 240 240 240 240 241 241 241 242 243 243 244 247 249 251 254 260 264 266 267 269 270 270 266 262 262 265 266 267 268 271 273 274 275 276 278 280 281 281 280 278 276 274 274 275 278 280 281 282 283 283 283 285 285 283 280
162 167 173 179 186 192 197 203 207 210 212 215 218 219 221 223 223 225 229 233 233 232 232 232 234 237 238 239 242 243 243 243 243 241 242 243 242 242 241 242 244 247 248 251 256 262 266 267 268 269 269 266 262 262 265 268 270 269 270 271 272 273 274 276 278 280 280 280 280 280 278 276 275 276 277 279 279 281 282 284 284 284 283 283 283
172 177 183 188 192 196 199 203 206 208 210 214 216 218 220 221 222 225 228 230 230 230 230 231 234 238 241 242 244 245 244 244 245 245 247 248 248 245 244 245 246 248 250 253 257 262 266 267 267 268 267 262 259 261 268 272 273 272 271 272 272 273 274 276 277 277 277 277 279 280 280 278 277 277 277 277 278 280 282 283 283 283 283 283 283
185 189 193 197 200 203 205 207 209 210 212 215 218 220 222 223 223 224 227 227 227 228 231 233 236 240 242 244 246 247 248 247 247 248 250 252 252 251 250 250 251 252 253 255 257 261 264 266 266 267 265 259 258 264 272 274 273 272 272 272 272 273 274 275 275 275 275 277 279 280 282 281 279 276 275 275 277 279 280 281 282 282 282 284 284
195 198 201 205 207 209 210 212 213 215 217 220 222 225 227 228 229 231 233 235 236 237 237 237 238 240 242 244 246 247 249 250 249 250 252 254 255 254 254 254 255 256 257 257 258 261 263 264 264 264 262 259 262 269 273 272 271 272 272 271 272 273 273 273 274 274 274 276 278 280 283 283 279 274 272 274 275 276 278 279 280 279 281 283 283
209 209 210 211 212 214 216 217 218 219 221 222 224 226 228 230 232 235 237 237 237 236 235 236 238 239 240 242 243 245 247 250 251 251 253 254 255 256 255 256 257 258 258 259 259 260 261 261 261 261 260 262 267 270 271 270 270 271 271 271 271 272 272 273 273 272 273 276 280 283 283 280 275 272 272 274 274 275 277 278 279 278 279 281 281
218 218 219 219 219 219 220 222 223 225 226 227 227 227 228 229 231 233 235 237 237 235 234 234 235 236 237 239 241 243 244 247 249 251 252 254 255 256 256 256 256 257 257 258 258 259 259 260 260 260 261 265 268 269 269 269 270 270 270 270 270 270 271 271 270 271 273 275 279 285 286 279 271 271 274 275 275 276 277 277 277 277 279 280 280
223 222 222 222 223 224 224 225 226 228 229 230 231 231 231 231 231 232 233 234 234 234 233 233 234 236 237 239 241 242 243 244 246 248 250 252 253 254 254 254 254 255 256 257 257 258 259 260 261 261 263 265 267 267 268 269 269 269 269 270 270 270 270 269 269 270 272 273 276 284 288 281 272 270 273 274 275 276 276 275 275 276 278 280 280
225 225 225 224 224 225 226 227 228 229 229 230 232 233 233 234 234 235 235 234 233 233 233 234 235 236 237 239 241 242 243 244 245 247 249 250 251 252 252 252 252 253 254 255 256 257 259 260 260 261 263 265 266 267 268 268 267 267 268 269 269 269 268 268 268 269 272 273 275 280 285 283 276 271 272 274 275 276 276 276 276 276 277 279 280
226 227 227 227 227 227 227 227 227 229 230 231 232 233 234 235 235 236 236 236 234 234 234 235 236 237 239 240 241 242 243 244 245 245 246 247 248 249 249 250 250 252 253 254 256 257 258 258 259 260 262 264 265 266 267 266 266 266 266 267 268 268 267 267 268 269 270 273 275 278 282 284 280 275 272 273 275 275 275 275 276 277 278 280 281
229 230 229 229 230 230 230 230 231 231 232 232 233 234 235 235 236 236 237 237 238 238 238 239 240 241 241 242 241 242 242 243 243 243 244 245 246 247 248 249 250 252 253 254 255 256 256 258 259 261 263 264 265 266 266 266 266 266 266 266 266 266 267 268 269 270 270 272 275 277 280 282 281 277 274 274 275 275 276 277 278 279 280 282 282
180 214 224 228 231 233 233 233 234 236 236 236 235 235 236 236 236 237 238 239 239 240 240 240 240 240 240 240 240 239 240 240 241 242 243 244 245 247 248 249 250 251 252 253 254 255 257 259 261 262 263 265 266 266 265 264 264 265 265 266 266 266 267 268 269 270 271 272 274 276 278 280 280 278 276 275 275 275 275 276 277 277 278 279 279
122 133 158 188 209 223 230 234 238 241 242 242 241 241 241 240 240 241 241 240 239 240 241 241 241 241 240 239 238 238 238 238 239 240 241 242 243 244 245 246 248 249 250 252 255 257 259 260 262 263 264 264 264 264 263 263 264 264 265 266 266 267 268 268 269 270 271 272 273 274 276 278 278 278 276 275 275 275 275 276 276 276 275 275 275
304 197 128 128 144 170 194 215 229 237 241 241 242 244 246 246 245 244 243 239 235 232 232 233 234 236 238 238 238 238 238 238 238 238 238 239 240 241 243 245 247 249 252 254 256 257 259 260 261 262 263 263 262 262 262 263 263 264 265 266 267 268 268 269 269 270 271 271 272 273 275 276 277 277 275 274 273 274 276 278 278 277 276 276 275
317 305 296 288 189 164 168 174 183 194 207 217 223 229 235 239 241 242 243 242 239 235 233 231 228 226 226 228 231 233 233 234 235 236 237 239 242 244 245 246 247 249 251 254 255 256 257 258 259 259 259 259 259 260 261 262 262 263 265 266 267 267 267 268 269 270 271 271 272 273 274 275 275 275 274 273 273 273 274 275 274 275 276 276 276
325 317 308 302 296 283 261 242 225 209 201 201 197 192 197 210 221 229 235 238 239 238 237 236 233 229 224 221 223 228 232 234 235 236 236 238 241 242 243 244 244 245 246 249 251 252 254 255 256 256 257 257 257 258 260 262 263 264 265 265 265 266 266 268 269 270 271 272 273 273 274 274 274 273 272 271 271 271 271 271 272 273 274 274 274
326 323 317 309 302 296 292 287 280 269 256 245 238 227 214 208 209 211 215 219 222 223 220 218 220 222 223 223 224 227 232 236 239 239 239 240 242 243 243 244 244 243 244 246 248 250 251 253 254 255 257 257 258 259 261 262 263 264 264 265 265 266 267 269 270 271 272 273 273 272 272 271 270 270 270 270 270 270 270 271 273 274 274 274 275
317 319 319 316 310 302 295 291 289 287 284 279 272 264 256 249 243 237 232 229 230 233 234 225 215 213 215 216 216 216 219 224 228 231 232 233 235 238 241 243 244 244 245 247 249 250 251 253 254 254 256 257 258 259 261 262 262 263 263 264 265 266 268 269 270 270 270 270 269 268 268 267 267 267 268 269 270 270 272 274 275 274 273 273 275
Height
5765 5768 5771 5775 5777 5779 5781 5784 5787 5790 5793 5796 5798 5800 5802 5804 5807 5808 5810 5813 5815 5817 5819 5822 5825 5827 5829 5831 5833 5834 5837 5838 5839 5840 5841 5842 5842 5843 5843 5844 5844 5845 5845 5845 5846 5846 5847 5847 5847 5847 5846 5846 5845 5845 5845 5844 5844 5843 5842 5840 5839 5837 5836 5835 5834 5833 5831 5830 5828 5827 5825 5824 5823 5822 5821 5819 5818 5816 5815 5814 5812 5811 5809 5808 5807
5765 5766 5768 5770 5773 5776 5778 5780 5783 5786 5789 5792 5795 5797 5799 5801 5803 5805 5807 5809 5811 5813 5815 5817 5820 5823 5826 5827 5829 5830 5832 5834 5836 5837 5837 5838 5839 5839 5839 5840 5840 5841 5842 5842 5843 5843 5843 5844 5844 5844 5844 5844 5843 5843 5842 5842 5842 5841 5840 5839 5838 5836 5835 5834 5832 5831 5830 5828 5827 5825 5824 5822 5821 5820 5819 5818 5816 5815 5813 5812 5811 5809 5807 5806 5805
5761 5762 5764 5767 5770 5772 5774 5777 5780 5782 5786 5789 5791 5793 5795 5798 5800 5802 5803 5805 5806 5809 5811 5813 5815 5818 5821 5823 5824 5826 5828 5830 5832 5834 5834 5835 5835 5835 5836 5836 5837 5838 5839 5840 5840 5840 5841 5841 5841 5841 5842 5842 5841 5841 5840 5839 5839 5840 5839 5838 5836 5835 5833 5832 5831 5830 5828 5827 5825 5824 5822 5821 5820 5818 5817 5816 5814 5813 5812 5811 5809 5808 5806 5804 5803
5756 5758 5761 5764 5767 5768 5770 5773 5777 5780 5783 5786 5788 5790 5792 5794 5796 5798 5799 5801 5803 5805 5806 5808 5811 5813 5816 5818 5820 5822 5824 5826 5829 5830 5830 5830 5831 5831 5832 5833 5834 5835 5836 5837 5838 5838 5838 5839 5839 5839 5839 5839 5839 5839 5838 5837 5837 5837 5837 5836 5835 5833 5832 5830 5829 5828 5826 5825 5823 5822 5821 5819 5818 5817 5815 5814 5813 5811 5810 5809 5807 5806 5804 5803 5802
5751 5753 5757 5760 5762 5765 5767 5770 5773 5776 5780 5783 5785 5786 5788 5790 5792 5794 5796 5798 5800 5802 5803 5804 5806 5809 5811 5814 5816 5818 5820 5822 5824 5825 5825 5826 5828 5829 5830 5830 5831 5832 5834 5834 5835 5836 5836 5836 5836 5837 5837 5837 5836 5836 5836 5836 5835 5834 5835 5834 5833 5832 5830 5829 5827 5826 5824 5823 5821 5820 5819 5818 5816 5815 5814 5812 5811 5810 5808 5807 5806 5804 5803 5801 5800
5747 5749 5752 5756 5758 5761 5764 5766 5769 5773 5776 5779 5781 5783 5784 5786 5788 5790 5792 5795 5796 5798 5799 5801 5803 5805 5807 5809 5811 5813 5816 5818 5820 5820 5821 5823 5824 5826 5827 5827 5828 5829 5830 5831 5832 5833 5834 5834 5834 5834 5835 5834 5834 5834 5834 5834 5833 5832 5832 5832 5831 5830 5828 5827 5825 5824 5822 5821 5819 5818 5817 5816 5814 5813 5812 5810 5809 5808 5806 5805 5804 5802 5801 5800 5798
5741 5744 5747 5751 5754 5757 5760 5763 5766 5769 5772 5775 5777 5779 5781 5783 5785 5787 5789 5791 5793 5795 5797 5798 5800 5802 5803 5805 5807 5809 5811 5813 5814 5816 5818 5820 5821 5822 5823 5824 5824 5825 5826 5827 5828 5829 5831 5831 5831 5832 5832 5832 5831 5831 5831 5831 5830 5829 5829 5829 5829 5827 5826 5825 5824 5822 5820 5819 5817 5816 5815 5814 5812 5811 5810 5809 5807 5806 5804 5803 5802 5800 5799 5798 5796
5735 5739 5742 5745 5749 5753 5756 5759 5762 5764 5767 5770 5772 5775 5777 5780 5782 5783 5785 5787 5789 5792 5794 5796 5798 5799 5801 5802 5804 5806 5808 5809 5811 5813 5815 5816 5818 5819 5819 5821 5820 5820 5822 5824 5825 5826 5827 5828 5828 5829 5829 5829 5829 5829 5829 5829 5828 5827 5826 5826 5826 5825 5824 5823 5822 5820 5818 5817 5815 5814 5812 5811 5810 5809 5808 5806 5805 5804 5802 5800 5799 5798 5797 5795 5794
5728 5732 5736 5739 5744 5748 5751 5754 5757 5759 5762 5764 5767 5770 5774 5776 5778 5780 5781 5784 5786 5788 5790 5792 5794 5796 5798 5800 5802 5803 5805 5806 5808 5810 5812 5813 5814 5814 5815 5816 5816 5816 5819 5822 5822 5823 5823 5824 5825 5825 5825 5826 5826 5826 5826 5826 5825 5825 5824 5823 5823 5822 5821 5820 5819 5818 5816 5814 5813 5811 5810 5809 5808 5807 5805 5804 5802 5801 5799 5798 5797 5796 5794 5793 5791
5720 5724 5729 5733 5737 5741 5745 5748 5751 5754 5756 5759 5762 5766 5769 5771 5774 5776 5778 5780 5782 5784 5786 5788 5790 5792 5795 5797 5799 5800 5802 5803 5805 5807 5808 5809 5809 5810 5811 5812 5813 5813 5816 5818 5818 5819 5819 5820 5821 5821 5822 5822 5823 5823 5823 5823 5822 5822 5821 5820 5820 5819 5818 5817 5816 5815 5814 5812 5810 5809 5807 5806 5806 5805 5803 5802 5800 5799 5797 5796 5795 5793 5792 5790 5789
5712 5716 5721 5726 5730 5734 5738 5741 5745 5748 5751 5754 5757 5760 5763 5765 5768 5771 5773 5776 5777 5779 5782 5784 5786 5788 5790 5793 5795 5796 5798 5800 5802 5803 5804 5805 5805 5806 5807 5808 5809 5810 5811 5812 5814 5815 5816 5816 5817 5817 5818 5818 5819 5819 5820 5819 5819 5818 5818 5817 5816 5816 5815 5814 5813 5812 5811 5809 5808 5806 5805 5804 5803 5802 5801 5800 5798 5796 5795 5793 5792 5791 5789 5787 5786
5702 5707 5712 5717 5721 5725 5730 5734 5738 5741 5745 5748 5752 5755 5757 5759 5762 5765 5768 5770 5772 5774 5777 5780 5782 5784 5785 5787 5790 5792 5794 5796 5797 5798 5799 5800 5801 5802 5803 5804 5804 5806 5807 5808 5810 5811 5812 5812 5812 5813 5814 5814 5815 5816 5816 5816 5815 5815 5814 5814 5813 5813 5812 5811 5810 5809 5808 5806 5805 5803 5802 5801 5800 5799 5798 5797 5796 5794 5792 5791 5790 5788 5786 5785 5784
5691 5697 5702 5707 5711 5716 5721 5726 5730 5734 5738 5742 5745 5749 5751 5753 5756 5759 5762 5765 5767 5769 5771 5775 5777 5779 5780 5782 5785 5787 5789 5791 5792 5793 5794 5795 5796 5797 5799 5800 5802 5803 5804 5805 5806 5807 5807 5806 5807 5808 5810 5810 5811 5812 5813 5813 5812 5812 5811 5811 5810 5810 5809 5808 5807 5806 5804 5803 5802 5800 5799 5798 5797 5796 5795 5794 5793 5791 5789 5788 5787 5785 5784 5782 5781
5680 5685 5691 5697 5701 5706 5712 5717 5722 5726 5731 5735 5738 5742 5745 5748 5751 5754 5757 5760 5762 5764 5767 5769 5772 5774 5776 5778 5780 5782 5784 5786 5787 5788 5789 5790 5792 5793 5795 5797 5798 5800 5801 5802 5803 5802 5801 5801 5803 5805 5806 5806 5807 5809 5809 5809 5809 5808 5807 5807 5807 5806 5806 5805 5804 5802 5801 5800 5798 5797 5796 5795 5793 5792 5792 5791 5790 5788 5787 5785 5784 5782 5781 5779 5778
5669 5675 5680 5686 5691 5696 5702 5708 5713 5718 5723 5727 5731 5735 5738 5741 5745 5748 5751 5754 5756 5759 5762 5764 5766 5769 5771 5773 5775 5778 5780 5782 5783 5784 5785 5787 5788 5790 5791 5792 5794 5796 5797 5798 5798 5797 5797 5798 5799 5801 5802 5802 5803 5804 5805 5804 5804 5804 5803 5803 5803 5802 5802 5801 5800 5799 5798 5797 5795 5794 5793 5792 5790 5789 5788 5787 5786 5785 5784 5782 5781 5779 5777 5776 5775
5659 5664 5670 5675 5681 5686 5692 5698 5704 5710 5715 5719 5723 5727 5731 5735 5739 5742 5745 5748 5750 5753 5756 5759 5761 5763 5766 5768 5770 5773 5776 5778 5780 5781 5782 5783 5784 5785 5787 5788 5790 5791 5792 5793 5793 5794 5794 5795 5796 5797 5797 5798 5799 5799 5799 5799 5799 5799 5799 5798 5798 5798 5798 5797 5796 5796 5795 5793 5792 5791 5790 5788 5787 5786 5785 5783 5782 5782 5780 5779 5777 5776 5774 5773 5771
5646 5652 5659 5665 5671 5677 5683 5688 5694 5701 5706 5710 5714 5719 5723 5728 5732 5736 5739 5741 5744 5747 5751 5753 5756 5758 5761 5763 5765 5767 5770 5773 5775 5776 5777 5778 5779 5780 5781 5783 5785 5786 5787 5788 5788 5789 5791 5791 5792 5792 5792 5793 5794 5794 5794 5794 5795 5795 5795 5794 5793 5793 5794 5793 5792 5792 5791 5790 5789 5788 5787 5785 5784 5782 5781 5780 5778 5778 5777 5776 5774 5772 5771 5769 5768
5634 5640 5647 5654 5660 5666 5673 5679 5684 5690 5697 5701 5706 5711 5716 5720 5725 5729 5732 5735 5738 5742 5745 5748 5750 5753 5755 5758 5760 5761 5764 5766 5768 5770 5771 5773 5774 5775 5776 5778 5780 5782 5783 5783 5783 5785 5786 5787 5787 5787 5788 5788 5788 5788 5788 5789 5790 5791 5790 5789 5789 5789 5790 5789 5788 5788 5788 5787 5786 5785 5783 5782 5780 5779 5778 5777 5775 5774 5773 5772 5770 5769 5767 5766 5764
5623 5629 5636 5643 5649 5654 5661 5668 5674 5680 5687 5692 5698 5703 5708 5713 5718 5722 5725 5728 5731 5735 5739 5741 5744 5747 5749 5752 5755 5756 5758 5760 5762 5764 5766 5767 5769 5770 5771 5773 5775 5777 5778 5778 5779 5780 5781 5781 5782 5782 5783 5783 5783 5783 5783 5784 5785 5786 5785 5784 5785 5785 5785 5785 5785 5784 5784 5783 5782 5781 5780 5778 5777 5775 5774 5773 5772 5770 5769 5768 5766 5765 5764 5762 5760
5611 5617 5624 5630 5636 5641 5648 5655 5662 5670 5677 5684 5689 5694 5700 5705 5710 5714 5717 5721 5724 5728 5732 5735 5738 5740 5743 5746 5749 5751 5752 5755 5757 5759 5761 5762 5763 5764 5766 5768 5770 5772 5772 5772 5774 5775 5776 5776 5777 5778 5778 5778 5778 5778 5778 5778 5780 5780 5780 5780 5781 5781 5780 5780 5781 5780 5779 5779 5778 5777 5776 5775 5773 5772 5771 5769 5768 5767 5765 5764 5762 5761 5760 5759 5756
5596 5602 5609 5616 5623 5629 5635 5643 5651 5660 5668 5675 5680 5685 5691 5696 5701 5705 5709 5712 5716 5721 5725 5728 5731 5733 5736 5739 5743 5745 5747 5750 5752 5754 5755 5757 5758 5759 5760 5763 5765 5766 5766 5766 5768 5769 5770 5772 5773 5773 5773 5772 5772 5773 5773 5774 5775 5775 5775 5776 5775 5775 5776 5776 5776 5776 5775 5775 5774 5773 5772 5771 5769 5768 5767 5765 5764 5763 5761 5760 5758 5756 5756 5755 5752
5579 5587 5595 5603 5611 5618 5624 5632 5642 5650 5658 5665 5670 5675 5682 5688 5692 5697 5700 5704 5709 5714 5718 5721 5724 5726 5729 5732 5736 5739 5741 5744 5747 5748 5750 5751 5753 5754 5755 5757 5759 5760 5760 5761 5762 5764 5765 5766 5767 5768 5767 5766 5767 5767 5768 5768 5769 5770 5771 5771 5770 5769 5770 5771 5771 5771 5771 5770 5770 5769 5768 5767 5765 5764 5763 5761 5760 5759 5757 5756 5754 5752 5751 5750 5748
5565 5573 5583 5592 5600 5608 5615 5624 5633 5642 5648 5655 5661 5667 5674 5679 5684 5689 5692 5696 5702 5706 5709 5713 5717 5719 5721 5725 5729 5732 5734 5737 5740 5743 5744 5746 5748 5749 5750 5752 5753 5754 5754 5755 5757 5758 5759 5759 5760 5762 5761 5760 5761 5762 5763 5763 5764 5766 5767 5766 5764 5764 5764 5764 5765 5766 5766 5765 5765 5765 5764 5763 5761 5760 5759 5757 5756 5755 5753 5751 5750 5748 5746 5745 5743
5552 5561 5572 5583 5592 5601 5609 5616 5625 5634 5641 5647 5654 5660 5667 5672 5676 5680 5684 5689 5695 5698 5701 5705 5709 5711 5714 5718 5722 5725 5728 5731 5734 5737 5739 5740 5742 5744 5745 5746 5747 5748 5749 5750 5751 5752 5752 5752 5754 5756 5755 5754 5755 5757 5757 5758 5759 5760 5761 5761 5759 5759 5759 5760 5761 5761 5761 5760 5761 5760 5759 5758 5757 5755 5754 5753 5751 5750 5750 5748 5746 5744 5742 5740 5739
5542 5553 5564 5575 5585 5595 5603 5609 5618 5627 5634 5640 5647 5653 5659 5664 5668 5673 5678 5683 5687 5690 5694 5698 5701 5704 5708 5711 5715 5719 5722 5725 5728 5731 5733 5734 5736 5737 5738 5739 5741 5743 5744 5744 5744 5745 5745 5746 5748 5750 5749 5748 5749 5750 5751 5753 5753 5754 5755 5755 5754 5755 5756 5757 5756 5756 5756 5755 5755 5755 5754 5753 5751 5750 5748 5748 5747 5746 5745 5744 5742 5740 5738 5736 5735
5537 5548 5558 5568 5580 5590 5597 5602 5611 5620 5627 5633 5640 5647 5652 5657 5661 5666 5671 5676 5680 5684 5687 5691 5694 5697 5701 5704 5708 5712 5715 5719 5723 5725 5727 5728 5730 5731 5732 5733 5734 5736 5737 5737 5738 5738 5739 5740 5741 5742 5742 5743 5744 5744 5746 5747 5747 5748 5749 5750 5750 5751 5751 5751 5751 5751 5751 5750 5749 5749 5748 5747 5745 5744 5743 5742 5741 5740 5740 5739 5737 5736 5734 5732 5730
5534 5545 5554 5564 5576 5584 5590 5596 5606 5615 5621 5627 5634 5640 5645 5649 5653 5658 5664 5669 5673 5677 5680 5683 5686 5690 5694 5698 5702 5706 5709 5713 5716 5718 5720 5722 5723 5724 5726 5726 5727 5727 5729 5730 5732 5733 5732 5732 5733 5734 5736 5738 5738 5739 5740 5742 5742 5743 5744 5744 5745 5746 5746 5746 5745 5745 5745 5744 5743 5742 5741 5740 5738 5738 5737 5735 5734 5734 5734 5733 5732 5730 5729 5727 5725
5531 5541 5550 5560 5570 5578 5585 5593 5603 5610 5615 5622 5628 5633 5638 5642 5648 5654 5660 5663 5667 5671 5675 5679 5684 5688 5690 5693 5696 5700 5703 5706 5709 5712 5715 5716 5717 5717 5718 5719 5719 5720 5722 5724 5726 5725 5724 5724 5726 5729 5730 5731 5732 5733 5735 5736 5737 5738 5738 5738 5739 5740 5740 5740 5739 5739 5739 5738 5736 5735 5735 5734 5732 5732 5731 5729 5728 5728 5728 5727 5726 5724 5722 5722 5720
5530 5540 5548 5556 5565 5574 5583 5591 5599 5605 5611 5618 5623 5628 5634 5640 5646 5652 5656 5659 5663 5667 5671 5675 5680 5684 5686 5687 5690 5693 5696 5699 5702 5706 5709 5709 5709 5709 5710 5712 5713 5714 5716 5717 5717 5716 5716 5718 5720 5723 5724 5725 5726 5728 5729 5730 5731 5731 5732 5732 5732 5732 5733 5733 5733 5733 5732 5731 5730 5729 5728 5727 5726 5725 5724 5723 5723 5721 5721 5721 5720 5717 5716 5716 5715
5533 5540 5547 5554 5562 5572 5580 5587 5594 5600 5606 5613 5618 5623 5630 5637 5642 5646 5650 5654 5658 5661 5664 5668 5673 5675 5677 5680 5683 5687 5690 5693 5696 5698 5699 5700 5701 5703 5705 5706 5706 5707 5708 5709 5708 5709 5710 5713 5714 5716 5717 5718 5720 5722 5723 5724 5724 5724 5725 5726 5725 5726 5726 5727 5727 5727 5726 5724 5724 5723 5721 5720 5720 5719 5718 5718 5717 5716 5715 5715 5714 5711 5710 5710 5710
5536 5541 5547 5553 5560 5568 5576 5583 5589 5596 5602 5608 5613 5619 5626 5632 5636 5639 5644 5648 5651 5654 5657 5660 5664 5666 5668 5671 5675 5679 5682 5685 5688 5689 5690 5692 5695 5697 5698 5699 5699 5700 5701 5701 5701 5702 5705 5707 5708 5709 5710 5711 5713 5716 5717 5717 5717 5717 5718 5718 5718 5719 5719 5720 5721 5720 5718 5718 5717 5716 5715 5714 5714 5713 5712 5712 5711 5710 5709 5709 5708 5706 5705 5704 5703
5537 5542 5547 5552 5559 5565 5572 5580 5586 5592 5598 5604 5609 5615 5620 5625 5629 5634 5639 5642 5645 5648 5650 5653 5656 5659 5661 5664 5667 5671 5674 5677 5679 5681 5682 5684 5687 5689 5690 5691 5691 5692 5693 5693 5695 5697 5698 5700 5702 5703 5703 5704 5706 5709 5710 5710 5710 5710 5710 5710 5711 5712 5712 5713 5713 5712 5711 5711 5711 5710 5709 5708 5708 5707 5705 5705 5705 5704 5703 5703 5702 5701 5700 5699 5697
5539 5543 5548 5553 5559 5565 5572 5579 5585 5591 5596 5601 5606 5611 5615 5620 5624 5629 5633 5636 5639 5642 5644 5647 5650 5652 5654 5657 5660 5663 5666 5669 5671 5673 5674 5676 5678 5680 5682 5683 5684 5685 5686 5688 5690 5691 5692 5692 5694 5696 5697 5697 5700 5702 5702 5703 5703 5703 5702 5703 5704 5705 5706 5705 5705 5704 5704 5704 5704 5703 5703 5702 5701 5700 5699 5698 5699 5697 5696 5697 5697 5695 5694 5693 5692
5541 5546 5551 5557 5562 5568 5574 5580 5585 5589 5593 5597 5602 5606 5610 5614 5619 5623 5627 5630 5632 5635 5638 5640 5643 5645 5648 5650 5653 5655 5658 5660 5662 5664 5666 5668 5670 5672 5674 5676 5677 5678 5680 5682 5684 5685 5685 5685 5687 5689 5691 5691 5693 5695 5696 5696 5696 5696 5696 5697 5697 5698 5698 5698 5697 5697 5697 5697 5696 5696 5696 5695 5694 5693 5692 5691 5691 5691 5689 5690 5690 5689 5688 5687 5686
5545 5549 5553 5558 5563 5569 5574 5579 5583 5587 5591 5594 5598 5601 5604 5608 5612 5616 5620 5622 5625 5628 5631 5634 5636 5639 5642 5644 5646 5648 5650 5652 5654 5657 5659 5661 5663 5665 5667 5669 5670 5672 5674 5676 5678 5678 5679 5679 5680 5682 5684 5685 5686 5687 5688 5689 5689 5689 5690 5690 5691 5690 5690 5690 5691 5691 5690 5689 5688 5688 5689 5688 5687 5687 5686 5684 5684 5684 5683 5683 5683 5683 5681 5680 5679
5549 5553 5557 5560 5564 5569 5573 5576 5580 5583 5587 5591 5595 5598 5601 5604 5607 5610 5613 5616 5618 5620 5623 5626 5629 5632 5635 5637 5639 5641 5643 5646 5648 5650 5652 5654 5657 5659 5660 5662 5664 5666 5667 5669 5671 5672 5672 5672 5673 5675 5677 5678 5679 5680 5682 5682 5682 5682 5683 5684 5684 5683 5683 5683 5685 5684 5683 5683 5682 5681 5681 5680 5680 5680 5679 5677 5677 5678 5677 5676 5676 5675 5674 5673 5671
5553 5556 5559 5563 5566 5569 5572 5575 5578 5581 5584 5587 5590 5593 5595 5599 5602 5605 5608 5610 5611 5613 5617 5620 5622 5626 5630 5632 5634 5636 5638 5640 5642 5644 5645 5647 5650 5652 5654 5655 5656 5658 5660 5663 5665 5666 5665 5666 5667 5668 5669 5671 5672 5674 5675 5676 5676 5675 5676 5676 5677 5677 5676 5676 5677 5677 5676 5676 5676 5674 5673 5672 5673 5673 5672 5670 5670 5671 5670 5669 5668 5668 5666 5665 5664
5555 5557 5560 5563 5565 5568 5571 5573 5576 5579 5582 5585 5587 5590 5592 5594 5597 5599 5601 5603 5606 5609 5612 5615 5617 5621 5624 5626 5627 5630 5632 5634 5636 5638 5639 5640 5643 5645 5647 5648 5649 5650 5652 5655 5658 5659 5659 5659 5660 5661 5662 5664 5666 5667 5668 5668 5668 5668 5669 5669 5669 5669 5669 5668 5669 5670 5669 5669 5668 5667 5666 5664 5664 5664 5664 5663 5663 5663 5663 5662 5661 5660 5659 5658 5657
5555 5557 5559 5561 5564 5566 5569 5571 5574 5576 5578 5581 5583 5586 5588 5591 5593 5594 5596 5599 5601 5604 5607 5610 5612 5615 5616 5617 5619 5623 5626 5627 5628 5630 5632 5633 5635 5637 5639 5641 5642 5643 5645 5648 5650 5651 5651 5652 5653 5654 5655 5657 5658 5659 5660 5660 5661 5660 5661 5662 5662 5662 5661 5661 5661 5662 5661 5661 5661 5660 5658 5656 5656 5656 5656 5655 5655 5656 5656 5655 5654 5653 5652 5651 5650
5554 5556 5557 5559 5562 5564 5566 5569 5571 5573 5575 5577 5579 5581 5583 5585 5588 5590 5592 5593 5595 5598 5600 5602 5604 5606 5608 5609 5612 5617 5619 5620 5620 5622 5624 5625 5627 5630 5632 5633 5634 5636 5638 5640 5642 5642 5643 5645 5646 5647 5648 5650 5651 5651 5652 5653 5653 5653 5653 5654 5655 5655 5654 5654 5654 5653 5653 5654 5654 5652 5650 5649 5649 5649 5648 5648 5648 5648 5648 5648 5646 5645 5644 5644 5642
5552 5553 5555 5557 5559 5560 5563 5565 5567 5569 5571 5573 5575 5577 5579 5580 5582 5584 5586 5588 5590 5591 5593 5595 5596 5598 5602 5604 5606 5609 5611 5612 5612 5614 5616 5617 5619 5622 5624 5625 5627 5628 5631 5633 5633 5634 5635 5637 5639 5640 5641 5642 5643 5643 5644 5645 5646 5645 5645 5646 5646 5647 5647 5647 5646 5646 5646 5646 5646 5645 5643 5642 5641 5641 5641 5642 5641 5640 5640 5640 5639 5637 5636 5635 5634
5549 5551 5552 5554 5555 5557 5559 5561 5563 5564 5566 5568 5570 5572 5574 5575 5577 5578 5580 5581 5583 5585 5586 5588 5590 5593 5595 5597 5599 5600 5602 5603 5605 5606 5608 5609 5611 5613 5615 5617 5619 5621 5623 5625 5625 5626 5628 5630 5632 5633 5633 5634 5634 5635 5636 5637 5638 5638 5638 5638 5638 5638 5639 5639 5639 5639 5638 5638 5638 5637 5636 5635 5635 5634 5635 5635 5634 5633 5632 5631 5631 5630 5628 5627 5626
5547 5548 5550 5551 5552 5553 5555 5556 5558 5560 5562 5563 5565 5567 5568 5570 5571 5572 5573 5575 5576 5578 5579 5581 5584 5586 5588 5590 5592 5593 5594 5595 5597 5598 5600 5601 5603 5604 5606 5609 5612 5614 5615 5617 5618 5620 5621 5623 5624 5625 5625 5625 5626 5627 5627 5628 5629 5629 5630 5630 5630 5630 5630 5631 5631 5631 5630 5630 5630 5630 5629 5629 5628 5628 5628 5627 5627 5626 5624 5624 5623 5622 5621 5620 5618
5545 5546 5546 5548 5549 5551 5552 5553 5554 5556 5557 5558 5560 5561 5562 5564 5565 5566 5567 5569 5570 5572 5574 5576 5577 5579 5581 5583 5585 5586 5586 5587 5589 5590 5591 5593 5595 5597 5599 5602 5604 5606 5608 5609 5611 5612 5614 5615 5616 5617 5617 5618 5618 5619 5619 5620 5621 5621 5621 5622 5622 5622 5622 5623 5623 5623 5623 5623 5622 5622 5622 5622 5621 5620 5620 5619 5619 5618 5617 5616 5616 5615 5613 5612 5610
5546 5545 5544 5545 5546 5547 5549 5550 5552 5553 5553 5554 5555 5556 5557 5558 5559 5560 5561 5563 5564 5566 5567 5569 5571 5572 5574 5576 5577 5578 5579 5580 5581 5583 5585 5587 5589 5591 5593 5595 5597 5599 5600 5602 5603 5604 5606 5607 5608 5609 5610 5610 5611 5611 5611 5612 5612 5613 5613 5613 5613 5614 5615 5615 5615 5615 5615 5615 5615 5615 5615 5614 5613 5612 5612 5611 5611 5610 5610 5609 5609 5607 5606 5604 5603
5546 5546 5545 5544 5544 5544 5545 5547 5548 5549 5550 5550 5551 5552 5552 5553 5554 5555 5556 5557 5558 5559 5561 5563 5564 5566 5567 5569 5570 5572 5573 5574 5575 5577 5579 5581 5583 5585 5587 5588 5590 5591 5592 5594 5595 5597 5598 5599 5600 5601 5602 5603 5603 5603 5603 5604 5604 5605 5605 5605 5605 5606 5606 5607 5607 5606 5607 5607 5607 5607 5607 5607 5606 5604 5604 5603 5602 5601 5601 5600 5599 5598 5597 5596 5594
5545 5545 5545 5544 5544 5543 5544 5545 5545 5546 5546 5546 5547 5547 5548 5549 5550 5550 5551 5552 5552 5554 5555 5556 5558 5560 5562 5563 5565 5566 5567 5568 5570 5572 5574 5575 5576 5578 5580 5581 5582 5584 5585 5587 5588 5589 5590 5591 5592 5593 5594 5595 5595 5595 5595 5596 5597 5597 5597 5598 5598 5598 5598 5598 5598 5598 5598 5598 5598 5598 5598 5598 5597 5596 5595 5594 5594 5592 5591 5591 5590 5589 5588 5587 5586
5544 5544 5543 5543 5543 5543 5543 5543 5544 5544 5543 5544 5544 5545 5545 5546 5547 5548 5549 5549 5549 5549 5550 5551 5552 5554 5556 5558 5560 5561 5562 5564 5565 5567 5568 5569 5571 5572 5574 5575 5576 5578 5579 5581 5582 5582 5583 5584 5584 5585 5586 5587 5587 5587 5588 5589 5589 5589 5589 5590 5590 5590 5590 5590 5591 5590 5590 5590 5590 5590 5589 5589 5589 5588 5586 5586 5585 5584 5584 5583 5582 5581 5580 5579 5577
5542 5542 5542 5542 5542 5542 5541 5541 5542 5542 5542 5542 5542 5542 5542 5543 5544 5545 5546 5546 5546 5547 5548 5548 5549 5550 5551 5552 5554 5556 5557 5559 5560 5562 5563 5564 5565 5567 5568 5569 5570 5572 5573 5574 5575 5576 5576 5577 5577 5578 5578 5579 5579 5580 5580 5581 5581 5581 5581 5581 5582 5582 5582 5582 5582 5582 5581 5581 5581 5581 5580 5580 5579 5579 5578 5577 5577 5576 5575 5575 5574 5573 5572 5571 5570
5539 5539 5540 5540 5540 5540 5540 5539 5540 5540 5540 5540 5540 5540 5540 5541 5541 5541 5542 5542 5543 5543 5544 5544 5544 5545 5547 5547 5549 5551 5552 5554 5555 5556 5557 5558 5560 5561 5562 5563 5564 5565 5566 5567 5568 5569 5569 5570 5570 5571 5571 5571 5572 5572 5572 5573 5573 5573 5573 5573 5573 5573 5573 5573 5573 5573 5572 5572 5572 5572 5571 5571 5570 5569 5569 5568 5568 5567 5567 5566 5565 5564 5563 5562 5562
5536 5536 5536 5537 5537 5537 5537 5537 5537 5537 5537 5537 5537 5537 5538 5538 5538 5538 5538 5538 5538 5539 5539 5539 5539 5540 5541 5543 5543 5544 5546 5547 5549 5550 5551 5552 5553 5555 5556 5557 5557 5558 5559 5560 5560 5561 5562 5563 5563 5563 5564 5564 5564 5564 5564 5565 5565 5565 5565 5564 5564 5564 5564 5564 5564 5564 5563 5563 5562 5562 5562 5562 5561 5561 5560 5560 5559 5559 5558 5558 5557 5556 5555 5554 5553